Simultaneous Nadir Overpasses (SNOs) Predictions

Prediction of SNOs between LANDSAT-8 and METOP-A Satellite Orbit:

Table of predicted SNOs for the next 14.0 days since TLE Epoch: 8/17/2019
Index Date (LANDSAT-8) Time (LANDSAT-8) Lat,Lon (LANDSAT-8) SZA (LANDSAT-8 ) Date (METOP-A) Time (METOP-A) Lat,Lon (METOP-A) SZA (METOP-A ) Distance(km) Time Diff (sec)
1 08/17/2019 16:41:19 -81.47, 156.07 109.29 08/17/2019 16:40:05 -81.47, 156.07 109.32 0.93 74
2 08/17/2019 17:30:45 81.47, -36.16 70.74 08/17/2019 17:30:45 81.47, -36.30 70.73 2.27 0
3 08/17/2019 18:20:12 -81.47, 131.39 109.27 08/17/2019 18:21:25 -81.47, 131.38 109.23 0.55 73
4 08/20/2019 12:15:35 -81.47,-137.45 108.36 08/20/2019 12:14:30 -81.47,-137.62 108.40 2.85 65
5 08/20/2019 13:05:01 81.47, 30.29 71.67 08/20/2019 13:05:09 81.47, 30.38 71.68 1.50 8
6 08/23/2019 07:49:51 -81.47, -70.99 107.40 08/23/2019 07:48:54 -81.47, -70.90 107.42 1.45 57
7 08/23/2019 08:39:17 81.47, 96.73 72.62 08/23/2019 08:39:34 81.47, 96.66 72.62 1.14 17
8 08/26/2019 03:24:06 -81.47, -4.54 106.42 08/26/2019 03:23:18 -81.47, -4.60 106.45 1.02 48
9 08/26/2019 04:13:32 81.47, 163.15 73.60 08/26/2019 04:13:57 81.47, 163.33 73.63 3.10 25
10 08/28/2019 22:58:22 -81.47, 61.88 105.42 08/28/2019 22:57:43 -81.47, 61.71 105.46 2.96 39




NCC Satellite Simultaneous Nadir Overpasses (SNOs) Prediction Service
